When you browse on this site, cookies collect data to enhance your experience and personalize the content and advertising you see.
Visit our Privacy Policy to learn more. By continuing to use the site, you agree to this use of cookies and data.
  • In Hungary
  • List of Countries
  • For 7 days
  • Water Temperature
  • Weather Map
  • News
  • Weather Widgets
  • user-avatar
    Login

    Hourly Weather Muchkapskiy

    Today, 17 October, Thursday

    Time Temperature Precipitation Wind Pressure Humidity
    00:00 +6°C° 0 mm 2 mps 760 mmHg 62%
    01:00 +5°C° 0 mm 3 mps 760 mmHg 65%
    02:00 +5°C° 0 mm 3 mps 760 mmHg 68%
    03:00 +5°C° 0 mm 3 mps 760 mmHg 77%
    04:00 +5°C° 0 mm 3 mps 760 mmHg 78%
    05:00 +5°C° 0 mm 4 mps 760 mmHg 79%
    06:00 +5°C° 0 mm 4 mps 760 mmHg 79%
    07:00 +6°C° 0 mm 4 mps 760 mmHg 76%
    08:00 +7°C° 0 mm 5 mps 760 mmHg 72%
    09:00 +8°C° 0 mm 5 mps 760 mmHg 68%
    10:00 +9°C° 0 mm 5 mps 759 mmHg 64%
    11:00 +12°C° 0 mm 5 mps 759 mmHg 60%
    12:00 +13°C° 0 mm 5 mps 759 mmHg 57%
    13:00 +14°C° 0 mm 5 mps 758 mmHg 56%
    14:00 +14°C° 0 mm 5 mps 758 mmHg 56%
    15:00 +15°C° 0 mm 5 mps 757 mmHg 56%
    16:00 +14°C° 0 mm 5 mps 757 mmHg 61%
    17:00 +12°C° 0 mm 4 mps 757 mmHg 65%
    18:00 +11°C° 0 mm 4 mps 756 mmHg 70%
    19:00 +11°C° 0 mm 4 mps 756 mmHg 71%
    20:00 +10°C° 0 mm 4 mps 756 mmHg 72%
    21:00 +10°C° 0 mm 4 mps 756 mmHg 72%
    22:00 +10°C° 0 mm 4 mps 756 mmHg 75%
    23:00 +10°C° 0 mm 4 mps 755 mmHg 78%

    Tomorrow, 18 October, Friday

    Time Temperature Precipitation Wind Pressure Humidity
    00:00 +10°C° 0 mm 4 mps 755 mmHg 81%
    01:00 +8°C° 0 mm 4 mps 755 mmHg 83%
    02:00 +8°C° 0 mm 4 mps 755 mmHg 86%
    03:00 +8°C° 0 mm 4 mps 754 mmHg 88%
    04:00 +8°C° 0 mm 4 mps 754 mmHg 90%
    05:00 +7°C° 0 mm 4 mps 754 mmHg 91%
    06:00 +8°C° 0 mm 3 mps 753 mmHg 92%
    07:00 +8°C° 0 mm 4 mps 753 mmHg 88%
    08:00 +10°C° 0 mm 4 mps 753 mmHg 83%
    09:00 +12°C° 0 mm 4 mps 753 mmHg 78%
    10:00 +13°C° 0 mm 4 mps 753 mmHg 73%
    11:00 +15°C° 0 mm 4 mps 753 mmHg 68%
    12:00 +17°C° 0 mm 3 mps 753 mmHg 62%
    13:00 +18°C° 0 mm 3 mps 753 mmHg 61%
    14:00 +18°C° 0 mm 3 mps 753 mmHg 59%
    15:00 +18°C° 0 mm 3 mps 752 mmHg 57%
    16:00 +17°C° 0 mm 3 mps 752 mmHg 63%
    17:00 +16°C° 0 mm 2 mps 752 mmHg 68%
    18:00 +14°C° 0 mm 2 mps 752 mmHg 74%
    19:00 +14°C° 0 mm 2 mps 753 mmHg 78%
    20:00 +13°C° 0 mm 2 mps 753 mmHg 81%
    21:00 +12°C° 0 mm 2 mps 753 mmHg 85%
    22:00 +12°C° 0 mm 2 mps 753 mmHg 87%
    23:00 +12°C° 0 mm 2 mps 754 mmHg 89%

    Day after tomorrow, 19 October, Saturday

    Time Temperature Precipitation Wind Pressure Humidity
    00:00 +10°C° 0 mm 2 mps 754 mmHg 91%
    01:00 +10°C° 0 mm 2 mps 754 mmHg 90%
    02:00 +10°C° 0 mm 2 mps 754 mmHg 90%
    03:00 +9°C° 0 mm 2 mps 754 mmHg 89%
    04:00 +9°C° 0 mm 2 mps 755 mmHg 90%
    05:00 +9°C° 0 mm 2 mps 755 mmHg 90%
    06:00 +8°C° 0 mm 2 mps 755 mmHg 91%
    07:00 +9°C° 0 mm 2 mps 755 mmHg 86%
    08:00 +10°C° 0 mm 2 mps 756 mmHg 82%
    09:00 +12°C° 0 mm 1 mps 756 mmHg 78%
    10:00 +13°C° 0 mm 1 mps 756 mmHg 71%
    11:00 +15°C° 0 mm 1 mps 756 mmHg 65%
    12:00 +16°C° 0 mm 1 mps 757 mmHg 58%
    13:00 +16°C° 0 mm 1 mps 757 mmHg 56%
    14:00 +16°C° 0 mm 1 mps 757 mmHg 55%
    15:00 +18°C° 0 mm 1 mps 757 mmHg 53%
    16:00 +15°C° 0 mm 1 mps 757 mmHg 59%
    17:00 +14°C° 0 mm 1 mps 757 mmHg 64%
    18:00 +13°C° 0 mm 1 mps 757 mmHg 69%
    19:00 +12°C° 0 mm 1 mps 757 mmHg 72%
    20:00 +12°C° 0 mm 2 mps 758 mmHg 75%
    21:00 +10°C° 0 mm 2 mps 758 mmHg 78%
    22:00 +10°C° 0 mm 2 mps 758 mmHg 80%
    23:00 +10°C° 0 mm 2 mps 758 mmHg 82%

    20 October, Sunday

    Time Temperature Precipitation Wind Pressure Humidity
    00:00 +9°C° 0 mm 2 mps 759 mmHg 85%
    01:00 +9°C° 0 mm 2 mps 759 mmHg 86%
    02:00 +9°C° 0 mm 2 mps 759 mmHg 87%
    03:00 +9°C° 0 mm 2 mps 759 mmHg 88%
    04:00 +8°C° 0 mm 2 mps 759 mmHg 89%
    05:00 +8°C° 0 mm 2 mps 759 mmHg 89%
    06:00 +8°C° 0 mm 2 mps 759 mmHg 89%
    07:00 +9°C° 0 mm 2 mps 759 mmHg 84%
    08:00 +10°C° 0 mm 2 mps 760 mmHg 80%
    09:00 +12°C° 0 mm 2 mps 760 mmHg 75%
    10:00 +13°C° 0 mm 2 mps 760 mmHg 69%
    11:00 +15°C° 0 mm 2 mps 760 mmHg 63%
    12:00 +16°C° 0 mm 3 mps 760 mmHg 57%
    13:00 +17°C° 0 mm 3 mps 760 mmHg 55%
    14:00 +17°C° 0 mm 3 mps 759 mmHg 54%
    15:00 +17°C° 0 mm 3 mps 759 mmHg 53%
    16:00 +16°C° 0 mm 3 mps 759 mmHg 57%
    17:00 +15°C° 0 mm 2 mps 759 mmHg 62%
    18:00 +13°C° 0 mm 2 mps 759 mmHg 67%
    19:00 +13°C° 0 mm 2 mps 759 mmHg 68%
    20:00 +11°C° 0 mm 3 mps 759 mmHg 69%
    21:00 +11°C° 0 mm 3 mps 760 mmHg 71%
    22:00 +10°C° 0 mm 3 mps 760 mmHg 72%
    23:00 +10°C° 0 mm 3 mps 760 mmHg 73%

    21 October, Monday

    Time Temperature Precipitation Wind Pressure Humidity
    00:00 +10°C° 0 mm 3 mps 760 mmHg 74%
    01:00 +9°C° 0 mm 3 mps 760 mmHg 75%
    02:00 +9°C° 0 mm 3 mps 759 mmHg 76%
    03:00 +9°C° 0 mm 3 mps 759 mmHg 77%
    04:00 +9°C° 0 mm 3 mps 759 mmHg 77%
    05:00 +9°C° 0 mm 3 mps 759 mmHg 78%
    06:00 +9°C° 0 mm 3 mps 759 mmHg 78%
    07:00 +9°C° 0 mm 3 mps 759 mmHg 75%
    08:00 +10°C° 0 mm 3 mps 759 mmHg 73%
    09:00 +11°C° 0 mm 4 mps 759 mmHg 70%
    10:00 +13°C° 0 mm 4 mps 759 mmHg 65%
    11:00 +14°C° 0 mm 4 mps 759 mmHg 61%
    12:00 +15°C° 0 mm 4 mps 759 mmHg 56%
    13:00 +17°C° 0 mm 4 mps 759 mmHg 55%
    14:00 +17°C° 0 mm 4 mps 758 mmHg 53%
    15:00 +17°C° 0 mm 4 mps 758 mmHg 52%
    16:00 +15°C° 0 mm 4 mps 758 mmHg 57%
    17:00 +14°C° 0 mm 3 mps 758 mmHg 61%
    18:00 +12°C° 0 mm 3 mps 758 mmHg 66%
    19:00 +12°C° 0 mm 3 mps 758 mmHg 68%
    20:00 +11°C° 0 mm 3 mps 758 mmHg 69%
    21:00 +11°C° 0 mm 3 mps 758 mmHg 71%
    22:00 +11°C° 0 mm 3 mps 757 mmHg 72%
    23:00 +10°C° 0 mm 3 mps 757 mmHg 73%

    22 October, Tuesday

    Time Temperature Precipitation Wind Pressure Humidity
    00:00 +10°C° 0 mm 3 mps 757 mmHg 74%
    01:00 +10°C° 0 mm 3 mps 757 mmHg 75%
    02:00 +9°C° 0 mm 3 mps 757 mmHg 75%
    03:00 +9°C° 0 mm 3 mps 756 mmHg 76%
    04:00 +9°C° 0 mm 3 mps 756 mmHg 78%
    05:00 +9°C° 0 mm 3 mps 756 mmHg 80%
    06:00 +8°C° 0 mm 3 mps 756 mmHg 81%
    07:00 +8°C° 0 mm 4 mps 756 mmHg 77%
    08:00 +10°C° 0 mm 4 mps 756 mmHg 73%
    09:00 +10°C° 0 mm 5 mps 756 mmHg 70%
    10:00 +13°C° 0 mm 5 mps 755 mmHg 65%
    11:00 +14°C° 0 mm 5 mps 755 mmHg 60%
    12:00 +16°C° 0 mm 5 mps 755 mmHg 56%
    13:00 +16°C° 0 mm 6 mps 754 mmHg 53%
    14:00 +17°C° 0 mm 6 mps 754 mmHg 51%
    15:00 +17°C° 0 mm 6 mps 753 mmHg 49%
    16:00 +16°C° 0 mm 6 mps 753 mmHg 53%
    17:00 +15°C° 0 mm 5 mps 753 mmHg 57%
    18:00 +13°C° 0 mm 4 mps 752 mmHg 61%
    19:00 +13°C° 0 mm 5 mps 752 mmHg 62%
    20:00 +13°C° 0 mm 5 mps 752 mmHg 62%
    21:00 +13°C° 0 mm 5 mps 751 mmHg 63%
    22:00 +12°C° 0 mm 5 mps 751 mmHg 63%
    23:00 +12°C° 0 mm 5 mps 751 mmHg 63%
    Show more